This is the latest recevied weather packets stored in our database for station/object SR5NLK-1. If no packets are shown the sender has not sent any weather packets the latest 10 day(s).
| Time | Temp. | Humidity | Pressure | Rain* | Wind** | Luminosity | Snow |
|---|---|---|---|---|---|---|---|
| 1788080692 | 28.89° C | 44% | 1075.3 hPa | 0 mm | - | - | - |
| 1788080392 | 28.89° C | 44% | 1080.3 hPa | 0 mm | - | - | - |
| 1788080130 | 28.89° C | 44% | 1027 hPa | 0 mm | - | - | - |
| 1788080092 | 28.89° C | 44% | 1027 hPa | 0 mm | - | - | - |
| 1788079792 | 28.89° C | 44% | 1072.1 hPa | 0 mm | - | - | - |
| 1788079525 | 28.89° C | 44% | 1047.6 hPa | 0 mm | - | - | - |
| 1788079492 | 28.89° C | 44% | 1047.6 hPa | 0 mm | - | - | - |
| 1788079226 | 28.89° C | 43% | 1065.8 hPa | 0 mm | - | - | - |
| 1788079191 | 28.89° C | 43% | 1065.8 hPa | 0 mm | - | - | - |
| 1788078892 | 29.44° C | 43% | 1074.1 hPa | 0 mm | - | - | - |
| 1788078592 | 28.89° C | 45% | 1048.7 hPa | 0 mm | - | - | - |
| 1788078292 | 27.78° C | 46% | 1045.3 hPa | 0 mm | - | - | - |
| 1788078026 | 27.78° C | 45% | 1062.7 hPa | 0 mm | - | - | - |
| 1788077992 | 27.78° C | 45% | 1062.7 hPa | 0 mm | - | - | - |
| 1788077729 | 27.78° C | 45% | 1046.9 hPa | 0 mm | - | - | - |
| 1788077692 | 27.78° C | 45% | 1046.9 hPa | 0 mm | - | - | - |
| 1788077425 | 27.78° C | 43% | 1062.7 hPa | 0 mm | - | - | - |
| 1788077392 | 27.78° C | 43% | 1062.7 hPa | 0 mm | - | - | - |
| 1788077211 | 28.33° C | 41% | 1018.2 hPa | 0 mm | - | - | - |
| 1788077146 | 28.89° C | 42% | 1024.1 hPa | 0 mm | - | - | - |
| 1788077092 | 28.89° C | 42% | 1024.1 hPa | 0 mm | - | - | - |
| 1788076792 | 29.44° C | 41% | 1062.7 hPa | 0 mm | - | - | - |
| 1788076538 | 30.56° C | 41% | 993.5 hPa | 0 mm | - | - | - |
| 1788076492 | 30.56° C | 41% | 993.5 hPa | 0 mm | - | - | - |
| 1788076296 | 30.56° C | 41% | 1081.5 hPa | 0 mm | - | - | - |
* Rain latest hour (hover to see other rain measurements)
** Current wind speed in m/s (hover to see current wind gust speed)